Вернуться в каталог

DRO-B

LostСвязьLPO
NORAD 60058·PAYLOAD·🇨🇳 China

Запущен Mar 13, 2024 с Xichang Satellite Launch Center

Loading…

TLE

СвежийSource: Space-Track

Эпоха: Aug 10, 2026, 14:45 UTC

1 60058U 24048D   26222.61524306 -.00009221  00000-0  00000-0 0  9993
2 60058  29.8306 354.7217 4752241  86.0189  25.0148  0.02134266   155

Отслеживайте DRO-B в реальном времени с AllMySat

Download on the App Store